Date String (YYYY-MM-DD hh:mm:ss) UTC,Instrument flags,Ambient pressure (hPa),Sample flow (lpm),Bypass flow (lpm),Sample temperature (°C),Ambient temperature (°C),ASC tube jacket temperature (°C),LED temperature (°C),Box temperature (°C),Sample RH (%),Span deviation,Mass concentration (μg/m³),Mass concentration (μg/m³),Mass concentration (μg/m³)
DateTimeUTC,F1_M11,P_M11,Q1_M11,Q2_M11,T1_M11,T2_M11,T3_M11,T4_M11,T5_M11,U1_M11,ZSPAN_M11,X0_M11,X2_M11,X1_M11
2022-08-15 10:00:00,,0828.3,5.00,0.00,31.5,28.8,00.0,39.7,32.2,34.5,0000.0,0008.13,0004.79,0004.29
2022-08-15 10:01:00,,0828.3,5.01,0.00,31.4,28.9,00.0,39.8,32.2,34.5,0000.0,0008.08,0004.78,0004.28
2022-08-15 10:02:00,,0828.3,5.00,0.00,31.4,28.9,00.0,39.8,32.2,34.5,0000.0,0008.15,0004.79,0004.29
2022-08-15 10:03:00,,0828.3,5.00,0.00,31.4,29.0,00.0,39.8,32.3,34.6,0000.0,0008.69,0004.79,0004.31
2022-08-15 10:04:00,,0828.3,5.00,0.00,31.4,29.1,00.0,39.8,32.3,34.7,0000.0,0008.52,0004.77,0004.33
2022-08-15 10:05:00,,0828.3,5.01,0.00,31.3,28.8,00.0,39.8,32.2,34.7,0000.0,0008.48,0004.80,0004.33
2022-08-15 10:06:00,,0828.3,5.00,0.00,31.2,27.9,00.0,39.7,31.9,34.9,0000.0,0008.47,0004.80,0004.35
2022-08-15 10:07:00,,0828.3,4.99,0.00,31.2,27.4,00.0,39.7,31.8,35.1,0000.0,0008.49,0004.81,0004.37
2022-08-15 10:08:00,,0828.2,5.00,0.00,31.2,27.2,00.0,39.6,31.8,35.1,0000.0,0008.49,0004.82,0004.38
2022-08-15 10:09:00,,0828.3,5.00,0.00,31.4,27.2,00.0,39.6,31.9,34.8,0000.0,0008.48,0004.83,0004.39
2022-08-15 10:10:00,,0828.3,4.99,0.00,31.6,27.4,00.0,39.5,32.0,34.3,0000.0,0008.48,0004.85,0004.41
2022-08-15 10:11:00,,0828.3,5.00,0.00,31.6,27.6,00.0,39.5,32.0,34.2,0000.0,0008.60,0004.89,0004.42
2022-08-15 10:12:00,,0828.3,5.01,0.00,31.6,27.7,00.0,39.5,32.0,34.2,0000.0,0008.71,0004.91,0004.42
2022-08-15 10:13:00,,0828.2,4.99,0.00,31.6,27.9,00.0,39.6,32.0,34.2,0000.0,0008.67,0004.90,0004.43
2022-08-15 10:14:00,,0828.3,5.00,0.00,31.6,28.1,00.0,39.6,32.0,34.3,0000.0,0007.92,0004.87,0004.42
2022-08-15 10:15:00,,0828.1,5.00,0.00,31.5,28.2,00.0,39.6,32.0,34.4,0000.0,0007.91,0004.88,0004.43
2022-08-15 10:16:00,,0828.1,5.00,0.00,31.5,28.3,00.0,39.7,32.0,34.5,0000.0,0007.83,0004.85,0004.44
2022-08-15 10:17:00,,0828.1,5.00,0.00,31.5,28.5,00.0,39.7,32.0,34.5,0000.0,0008.49,0004.88,0004.46
2022-08-15 10:18:00,,0828.1,5.00,0.00,31.4,28.6,00.0,39.7,32.1,34.6,0000.0,0008.61,0004.91,0004.46
2022-08-15 10:19:00,,0828.1,5.00,0.00,31.4,28.7,00.0,39.7,32.1,34.6,0000.0,0008.70,0004.95,0004.47
2022-08-15 10:20:00,,0828.1,5.00,0.00,31.4,28.7,00.0,39.7,32.1,34.7,0000.0,0008.77,0004.99,0004.48
2022-08-15 10:21:00,,0828.0,5.00,0.00,31.3,28.8,00.0,39.7,32.1,34.7,0000.0,0008.75,0005.00,0004.49
2022-08-15 10:22:00,,0828.0,5.01,0.00,31.3,28.9,00.0,39.7,32.1,34.8,0000.0,0008.67,0004.99,0004.51
2022-08-15 10:23:00,,0828.0,4.99,0.00,31.3,28.9,00.0,39.7,32.2,34.8,0000.0,0008.64,0005.00,0004.54
2022-08-15 10:24:00,,0828.0,5.00,0.00,31.2,29.0,00.0,39.7,32.2,34.9,0000.0,0008.67,0005.03,0004.56
2022-08-15 10:25:00,,0828.0,5.01,0.00,31.2,29.0,00.0,39.7,32.2,34.8,0000.0,0008.78,0005.08,0004.58
2022-08-15 10:26:00,,0828.0,4.99,0.00,31.2,29.1,00.0,39.7,32.2,34.6,0000.0,0009.65,0005.09,0004.59
2022-08-15 10:27:00,,0828.0,5.01,0.00,31.2,28.8,00.0,39.7,32.2,34.9,0000.0,0010.65,0005.14,0004.62
2022-08-15 10:28:00,,0827.9,4.99,0.00,31.1,28.1,00.0,39.6,32.0,35.2,0000.0,0010.51,0005.14,0004.62
2022-08-15 10:29:00,,0828.0,5.01,0.00,31.2,27.8,00.0,39.6,32.1,35.1,0000.0,0010.37,0005.14,0004.63
2022-08-15 10:30:00,,0828.0,4.99,0.00,31.4,27.8,00.0,39.6,32.1,34.6,0000.0,0010.41,0005.10,0004.63
2022-08-15 10:31:00,,0827.9,5.00,0.00,31.4,27.8,00.0,39.5,32.1,34.4,0000.0,0010.42,0005.07,0004.62
2022-08-15 10:32:00,,0828.0,5.00,0.00,31.5,27.9,00.0,39.5,32.0,34.3,0000.0,0010.50,0005.09,0004.63
2022-08-15 10:33:00,,0828.0,5.00,0.00,31.4,28.1,00.0,39.6,32.0,34.4,0000.0,0010.53,0005.10,0004.62
2022-08-15 10:34:00,,0828.1,4.99,0.00,31.4,28.2,00.0,39.6,32.0,34.5,0000.0,0010.67,0005.10,0004.61
2022-08-15 10:35:00,,0828.1,5.01,0.00,31.4,28.3,00.0,39.6,32.0,34.6,0000.0,0010.81,0005.10,0004.60
2022-08-15 10:36:00,,0828.1,4.99,0.00,31.3,28.4,00.0,39.6,32.1,34.6,0000.0,0010.86,0005.12,0004.60
2022-08-15 10:37:00,,0828.1,5.01,0.00,31.3,28.5,00.0,39.6,32.1,34.8,0000.0,0010.15,0005.10,0004.59
2022-08-15 10:38:00,,0828.1,4.99,0.00,31.3,28.6,00.0,39.6,32.1,34.8,0000.0,0009.15,0005.02,0004.55
2022-08-15 10:39:00,,0828.1,4.99,0.00,31.2,28.7,00.0,39.6,32.1,33.9,0000.0,0008.40,0004.90,0004.46
2022-08-15 10:40:00,,0828.1,5.01,0.00,31.2,28.8,00.0,39.6,32.1,33.5,0000.0,0008.26,0004.83,0004.38
2022-08-15 10:41:00,,0828.1,4.99,0.00,31.2,28.8,00.0,39.6,32.1,33.1,0000.0,0008.16,0004.78,0004.29
2022-08-15 10:42:00,,0828.1,5.00,0.00,31.1,28.9,00.0,39.6,32.2,33.3,0000.0,0008.20,0004.72,0004.22
2022-08-15 10:43:00,,0828.1,5.01,0.00,31.1,28.9,00.0,39.6,32.2,33.2,0000.0,0008.10,0004.65,0004.15
2022-08-15 10:44:00,,0828.0,4.99,0.00,31.1,29.0,00.0,39.6,32.2,33.4,0000.0,0007.99,0004.56,0004.08
2022-08-15 10:45:00,,0828.0,4.99,0.00,31.1,29.0,00.0,39.6,32.2,33.4,0000.0,0007.77,0004.47,0004.01
2022-08-15 10:46:00,,0828.0,4.99,0.00,31.1,29.1,00.0,39.6,32.2,33.0,0000.0,0007.50,0004.37,0003.93
2022-08-15 10:47:00,,0827.9,5.00,0.00,31.0,29.1,00.0,39.6,32.2,33.0,0000.0,0007.28,0004.25,0003.85
2022-08-15 10:48:00,,0827.9,5.00,0.00,31.0,28.5,00.0,39.6,32.1,33.3,0000.0,0007.27,0004.21,0003.79
2022-08-15 10:49:00,,0827.9,5.01,0.00,30.9,27.7,00.0,39.5,31.9,33.6,0000.0,0007.32,0004.19,0003.77
2022-08-15 10:50:00,,0827.9,5.01,0.00,30.8,27.3,00.0,39.5,31.7,33.8,0000.0,0007.39,0004.22,0003.78
2022-08-15 10:51:00,,0827.9,5.01,0.00,30.6,27.2,00.0,39.4,31.6,34.1,0000.0,0007.36,0004.23,0003.83
2022-08-15 10:52:00,,0828.0,4.99,0.00,30.5,27.3,00.0,39.3,31.6,34.4,0000.0,0007.32,0004.24,0003.86
2022-08-15 10:53:00,,0828.1,5.00,0.00,30.5,27.4,00.0,39.3,31.6,34.5,0000.0,0006.97,0004.27,0003.90
2022-08-15 10:54:00,,0828.1,4.99,0.00,30.4,27.6,00.0,39.2,31.6,34.5,0000.0,0007.01,0004.30,0003.92
2022-08-15 10:55:00,,0828.1,5.01,0.00,30.4,27.8,00.0,39.2,31.6,34.5,0000.0,0007.07,0004.32,0003.93
2022-08-15 10:56:00,,0828.1,4.99,0.00,30.3,27.9,00.0,39.2,31.6,34.8,0000.0,0007.11,0004.35,0003.95
2022-08-15 10:57:00,,0828.1,5.00,0.00,30.3,28.1,00.0,39.1,31.7,35.2,0000.0,0007.10,0004.37,0003.96
2022-08-15 10:58:00,,0828.1,5.00,0.00,30.5,28.2,00.0,39.1,31.8,34.9,0000.0,0007.07,0004.37,0003.96
2022-08-15 10:59:00,,0828.1,5.00,0.00,30.7,28.3,00.0,39.1,31.9,34.5,0000.0,0006.97,0004.36,0003.97
